Time,TemperatureF,DewpointF,PressureIn,WindDirection,WindDirectionDegrees,WindSpeedMPH,WindSpeedGustMPH,Humidity,HourlyPrecipIn,Conditions,Clouds,dailyrainin,SoftwareType,DateUTC
2013-02-07 00:14:00,40.5,36.0,29.89,NW,325,1.0,6.0,83,0.00,,,0.00,weatherlink.com 1.10,2013-02-07 06:14:00,
2013-02-07 00:29:00,40.5,36.0,29.89,WNW,302,0.0,1.0,84,0.00,,,0.00,weatherlink.com 1.10,2013-02-07 06:29:00,
2013-02-07 00:44:00,41.3,36.0,29.88,WNW,302,0.0,1.0,82,0.00,,,0.00,weatherlink.com 1.10,2013-02-07 06:44:00,
2013-02-07 00:59:00,40.3,35.0,29.88,WNW,287,0.0,3.0,82,0.00,,,0.00,weatherlink.com 1.10,2013-02-07 06:59:00,
2013-02-07 01:14:00,39.6,35.0,29.88,WNW,285,1.0,1.0,84,0.00,,,0.00,weatherlink.com 1.10,2013-02-07 07:14:00,
2013-02-07 03:48:00,38.1,35.0,29.89,WNW,293,4.0,9.0,87,0.00,,,0.00,weatherlink.com 1.10,2013-02-07 09:48:00,
2013-02-07 04:05:00,38.2,34.0,29.89,NW,310,6.0,9.0,86,0.00,,,0.00,weatherlink.com 1.10,2013-02-07 10:05:00,
2013-02-07 04:20:00,37.7,34.0,29.90,NNW,337,9.0,9.0,87,0.00,,,0.00,weatherlink.com 1.10,2013-02-07 10:20:00,
2013-02-07 04:35:00,37.6,34.0,29.91,North,8,8.0,10.0,85,0.00,,,0.00,weatherlink.com 1.10,2013-02-07 10:35:00,
2013-02-07 04:50:00,38.0,34.0,29.91,WNW,300,8.0,13.0,84,0.00,,,0.00,weatherlink.com 1.10,2013-02-07 10:50:00,
2013-02-07 05:05:00,38.1,33.0,29.92,WNW,294,9.0,13.0,83,0.00,,,0.00,weatherlink.com 1.10,2013-02-07 11:05:00,
2013-02-07 05:20:00,37.9,33.0,29.93,WNW,283,6.0,13.0,83,0.00,,,0.00,weatherlink.com 1.10,2013-02-07 11:20:00,
2013-02-07 05:35:00,37.7,33.0,29.93,NW,316,8.0,12.0,83,0.00,,,0.00,weatherlink.com 1.10,2013-02-07 11:35:00,
2013-02-07 05:50:00,37.3,33.0,29.93,NW,319,5.0,14.0,83,0.00,,,0.00,weatherlink.com 1.10,2013-02-07 11:50:00,
2013-02-07 06:05:00,36.6,32.0,29.94,NNW,331,7.0,12.0,84,0.00,,,0.00,weatherlink.com 1.10,2013-02-07 12:05:00,
2013-02-07 06:20:00,36.4,32.0,29.94,WNW,302,4.0,12.0,85,0.00,,,0.00,weatherlink.com 1.10,2013-02-07 12:20:00,
2013-02-07 06:35:00,36.3,32.0,29.94,WNW,289,7.0,13.0,85,0.00,,,0.00,weatherlink.com 1.10,2013-02-07 12:35:00,
2013-02-07 06:50:00,36.1,32.0,29.95,NNE,18,4.0,14.0,86,0.00,,,0.00,weatherlink.com 1.10,2013-02-07 12:50:00,
2013-02-07 07:06:00,35.8,32.0,29.96,NNW,327,9.0,15.0,86,0.00,,,0.00,weatherlink.com 1.10,2013-02-07 13:06:00,
2013-02-07 07:21:00,35.4,32.0,29.97,NNW,337,8.0,18.0,87,0.00,,,0.00,weatherlink.com 1.10,2013-02-07 13:21:00,
2013-02-07 07:35:00,35.0,32.0,29.98,NW,326,11.0,16.0,87,0.00,,,0.00,weatherlink.com 1.10,2013-02-07 13:35:00,
2013-02-07 07:50:00,34.7,32.0,29.99,NNE,32,9.0,15.0,88,0.00,,,0.00,weatherlink.com 1.10,2013-02-07 13:50:00,
2013-02-07 08:05:00,34.4,32.0,30.00,NW,319,5.0,14.0,89,0.00,,,0.00,weatherlink.com 1.10,2013-02-07 14:05:00,
2013-02-07 08:21:00,34.0,31.0,30.01,NNE,13,8.0,14.0,89,0.00,,,0.00,weatherlink.com 1.10,2013-02-07 14:21:00,
2013-02-07 08:36:00,33.8,31.0,30.02,NW,315,7.0,16.0,90,0.00,,,0.00,weatherlink.com 1.10,2013-02-07 14:36:00,
2013-02-07 08:51:00,33.7,31.0,30.03,NW,319,6.0,16.0,90,0.00,,,0.00,weatherlink.com 1.10,2013-02-07 14:51:00,
2013-02-07 09:06:00,33.7,31.0,30.04,NW,316,7.0,15.0,90,0.00,,,0.00,weatherlink.com 1.10,2013-02-07 15:06:00,
2013-02-07 09:21:00,33.8,31.0,30.03,NW,319,14.0,14.0,90,0.00,,,0.00,weatherlink.com 1.10,2013-02-07 15:21:00,
2013-02-07 09:36:00,33.5,31.0,30.04,NW,316,10.0,20.0,89,0.00,,,0.00,weatherlink.com 1.10,2013-02-07 15:36:00,
2013-02-07 09:51:00,33.6,31.0,30.04,NW,325,15.0,17.0,89,0.00,,,0.00,weatherlink.com 1.10,2013-02-07 15:51:00,
2013-02-07 10:06:00,33.5,31.0,30.05,NW,325,8.0,18.0,89,0.00,,,0.00,weatherlink.com 1.10,2013-02-07 16:06:00,
2013-02-07 10:21:00,33.3,30.0,30.05,NNW,340,14.0,18.0,89,0.00,,,0.00,weatherlink.com 1.10,2013-02-07 16:21:00,
2013-02-07 10:36:00,34.0,31.0,30.06,NW,312,15.0,20.0,88,0.00,,,0.00,weatherlink.com 1.10,2013-02-07 16:36:00,
2013-02-07 10:51:00,35.1,31.0,30.07,NNW,330,8.0,18.0,86,0.00,,,0.00,weatherlink.com 1.10,2013-02-07 16:51:00,
2013-02-07 11:06:00,35.0,31.0,30.07,NW,319,9.0,21.0,84,0.00,,,0.00,weatherlink.com 1.10,2013-02-07 17:06:00,
2013-02-07 11:21:00,34.2,31.0,30.08,NNW,328,13.0,20.0,86,0.00,,,0.00,weatherlink.com 1.10,2013-02-07 17:21:00,
2013-02-07 11:36:00,34.0,30.0,30.08,North,349,9.0,19.0,86,0.00,,,0.00,weatherlink.com 1.10,2013-02-07 17:36:00,
2013-02-07 11:51:00,34.1,30.0,30.08,NNW,337,13.0,19.0,85,0.00,,,0.00,weatherlink.com 1.10,2013-02-07 17:51:00,
2013-02-07 12:06:00,33.9,30.0,30.08,NNW,327,13.0,20.0,85,0.00,,,0.00,weatherlink.com 1.10,2013-02-07 18:06:00,
2013-02-07 12:21:00,34.2,31.0,30.08,North,352,10.0,15.0,86,0.00,,,0.00,weatherlink.com 1.10,2013-02-07 18:21:00,
2013-02-07 12:37:00,33.7,30.0,30.07,NNE,13,12.0,18.0,85,0.00,,,0.00,weatherlink.com 1.10,2013-02-07 18:37:00,
2013-02-07 12:51:00,33.6,30.0,30.07,NNW,344,10.0,17.0,86,0.00,,,0.00,weatherlink.com 1.10,2013-02-07 18:51:00,
2013-02-07 13:06:00,33.6,30.0,30.08,NW,319,7.0,14.0,86,0.00,,,0.00,weatherlink.com 1.10,2013-02-07 19:06:00,
2013-02-07 13:21:00,33.2,30.0,30.08,North,352,13.0,16.0,86,0.00,,,0.00,weatherlink.com 1.10,2013-02-07 19:21:00,
2013-02-07 13:51:00,33.3,29.0,30.09,NW,319,6.0,14.0,85,0.00,,,0.00,weatherlink.com 1.10,2013-02-07 19:51:00,
2013-02-07 14:06:00,33.2,29.0,30.09,NNW,340,6.0,16.0,84,0.00,,,0.00,weatherlink.com 1.10,2013-02-07 20:06:00,
2013-02-07 14:22:00,32.8,29.0,30.09,NW,325,12.0,18.0,84,0.00,,,0.00,weatherlink.com 1.10,2013-02-07 20:22:00,
2013-02-07 14:36:00,32.8,29.0,30.09,NW,325,8.0,18.0,84,0.00,,,0.00,weatherlink.com 1.10,2013-02-07 20:36:00,
2013-02-07 14:51:00,32.6,28.0,30.09,NW,326,6.0,20.0,84,0.00,,,0.00,weatherlink.com 1.10,2013-02-07 20:51:00,
2013-02-07 15:07:00,32.7,28.0,30.10,NNW,334,11.0,19.0,83,0.00,,,0.00,weatherlink.com 1.10,2013-02-07 21:07:00,
2013-02-07 15:21:00,32.9,28.0,30.10,North,4,8.0,17.0,83,0.00,,,0.00,weatherlink.com 1.10,2013-02-07 21:21:00,
2013-02-07 15:36:00,33.1,28.0,30.11,North,1,11.0,16.0,82,0.00,,,0.00,weatherlink.com 1.10,2013-02-07 21:36:00,
2013-02-07 15:51:00,33.1,28.0,30.11,North,7,8.0,17.0,82,0.00,,,0.00,weatherlink.com 1.10,2013-02-07 21:51:00,
2013-02-07 16:06:00,32.9,28.0,30.12,NNW,333,11.0,19.0,83,0.00,,,0.00,weatherlink.com 1.10,2013-02-07 22:06:00,
2013-02-07 16:22:00,32.7,28.0,30.12,WNW,282,10.0,19.0,82,0.00,,,0.00,weatherlink.com 1.10,2013-02-07 22:22:00,
2013-02-07 16:36:00,32.8,28.0,30.12,NNE,15,8.0,14.0,82,0.00,,,0.00,weatherlink.com 1.10,2013-02-07 22:36:00,
2013-02-07 16:52:00,32.3,27.0,30.14,NW,315,11.0,20.0,82,0.00,,,0.00,weatherlink.com 1.10,2013-02-07 22:52:00,
2013-02-07 17:07:00,31.9,27.0,30.14,NNW,345,7.0,16.0,82,0.00,,,0.00,weatherlink.com 1.10,2013-02-07 23:07:00,
2013-02-07 17:22:00,31.8,27.0,30.15,North,349,9.0,16.0,82,0.00,,,0.00,weatherlink.com 1.10,2013-02-07 23:22:00,
2013-02-07 17:37:00,31.6,27.0,30.15,WNW,289,3.0,12.0,82,0.00,,,0.00,weatherlink.com 1.10,2013-02-07 23:37:00,
2013-02-07 17:52:00,31.5,27.0,30.16,North,1,15.0,15.0,82,0.00,,,0.00,weatherlink.com 1.10,2013-02-07 23:52:00,
2013-02-07 18:07:00,31.3,26.0,30.17,NW,305,9.0,14.0,82,0.00,,,0.00,weatherlink.com 1.10,2013-02-08 00:07:00,
2013-02-07 18:22:00,31.0,26.0,30.18,NW,315,11.0,16.0,82,0.00,,,0.00,weatherlink.com 1.10,2013-02-08 00:22:00,
2013-02-07 18:37:00,31.1,26.0,30.19,North,352,12.0,17.0,81,0.00,,,0.00,weatherlink.com 1.10,2013-02-08 00:37:00,
2013-02-07 18:52:00,31.1,26.0,30.19,NNW,332,7.0,13.0,81,0.00,,,0.00,weatherlink.com 1.10,2013-02-08 00:52:00,
2013-02-07 19:07:00,31.1,26.0,30.20,NNW,334,5.0,14.0,81,0.00,,,0.00,weatherlink.com 1.10,2013-02-08 01:07:00,
2013-02-07 19:22:00,31.1,26.0,30.20,NW,325,4.0,10.0,82,0.00,,,0.00,weatherlink.com 1.10,2013-02-08 01:22:00,
2013-02-07 19:37:00,31.0,26.0,30.21,NNW,345,3.0,10.0,82,0.00,,,0.00,weatherlink.com 1.10,2013-02-08 01:37:00,
2013-02-07 19:52:00,30.9,26.0,30.22,NNW,328,5.0,13.0,82,0.00,,,0.00,weatherlink.com 1.10,2013-02-08 01:52:00,
2013-02-07 20:07:00,30.6,26.0,30.22,NNE,13,6.0,16.0,82,0.00,,,0.00,weatherlink.com 1.10,2013-02-08 02:07:00,
2013-02-07 20:22:00,30.6,26.0,30.23,NW,319,8.0,13.0,82,0.00,,,0.00,weatherlink.com 1.10,2013-02-08 02:22:00,
2013-02-07 20:37:00,30.6,26.0,30.23,NNW,347,2.0,11.0,83,0.00,,,0.00,weatherlink.com 1.10,2013-02-08 02:37:00,
2013-02-07 20:52:00,30.5,26.0,30.23,NNW,342,5.0,11.0,82,0.00,,,0.00,weatherlink.com 1.10,2013-02-08 02:52:00,
2013-02-07 21:08:00,30.0,25.0,30.24,NNW,346,5.0,15.0,81,0.00,,,0.00,weatherlink.com 1.10,2013-02-08 03:08:00,
2013-02-07 21:22:00,30.0,25.0,30.25,NNE,23,2.0,11.0,82,0.00,,,0.00,weatherlink.com 1.10,2013-02-08 03:22:00,
2013-02-07 21:38:00,30.0,25.0,30.25,North,359,6.0,9.0,82,0.00,,,0.00,weatherlink.com 1.10,2013-02-08 03:38:00,
2013-02-07 21:52:00,29.9,25.0,30.25,North,1,4.0,11.0,81,0.00,,,0.00,weatherlink.com 1.10,2013-02-08 03:52:00,
2013-02-07 22:07:00,29.9,25.0,30.25,NW,316,2.0,8.0,82,0.00,,,0.00,weatherlink.com 1.10,2013-02-08 04:07:00,
2013-02-07 22:23:00,29.9,25.0,30.25,NNW,337,4.0,9.0,82,0.00,,,0.00,weatherlink.com 1.10,2013-02-08 04:23:00,
2013-02-07 22:37:00,29.7,25.0,30.26,North,3,5.0,8.0,82,0.00,,,0.00,weatherlink.com 1.10,2013-02-08 04:37:00,
2013-02-07 22:52:00,29.6,25.0,30.26,North,355,6.0,9.0,82,0.00,,,0.00,weatherlink.com 1.10,2013-02-08 04:52:00,
2013-02-07 23:08:00,29.6,24.0,30.27,NW,322,2.0,7.0,81,0.00,,,0.00,weatherlink.com 1.10,2013-02-08 05:08:00,
2013-02-07 23:23:00,29.6,24.0,30.27,NW,319,1.0,8.0,80,0.00,,,0.00,weatherlink.com 1.10,2013-02-08 05:23:00,
2013-02-07 23:38:00,29.7,24.0,30.26,North,4,3.0,7.0,80,0.00,,,0.00,weatherlink.com 1.10,2013-02-08 05:38:00,
2013-02-07 23:53:00,29.6,24.0,30.27,NNW,345,2.0,2.0,80,0.00,,,0.00,weatherlink.com 1.10,2013-02-08 05:53:00,